When you browse on this site, cookies collect data to enhance your experience and personalize the content and advertising you see.
Visit our Privacy Policy to learn more. By continuing to use the site, you agree to this use of cookies and data.
  • In Portugal
  • List of Countries
  • For 7 days
  • Water Temperature
  • Satellite Maps
  • Weather Map
  • Weather Widgets
  • user-avatar
    Login

    Hourly Weather Zabiele

    Today, 25 March, Monday

    Time Temperature Precipitation Wind Pressure Humidity
    00:00 +4°C° 0 mm 2 mps 752 mmHg 66%
    01:00 +4°C° 0 mm 2 mps 751 mmHg 68%
    02:00 +3°C° 0 mm 2 mps 751 mmHg 71%
    03:00 +2°C° 0 mm 2 mps 750 mmHg 73%
    04:00 +2°C° 0 mm 2 mps 750 mmHg 75%
    05:00 +2°C° 0 mm 2 mps 749 mmHg 73%
    06:00 +2°C° 0 mm 2 mps 749 mmHg 70%
    07:00 +4°C° 0 mm 1 mps 749 mmHg 68%
    08:00 +4°C° 0 mm 2 mps 748 mmHg 63%
    09:00 +5°C° 0 mm 2 mps 748 mmHg 59%
    10:00 +6°C° 0 mm 2 mps 748 mmHg 54%
    11:00 +6°C° 0.4 mm 2 mps 747 mmHg 58%
    12:00 +6°C° 0.4 mm 2 mps 747 mmHg 63%
    13:00 +6°C° 0.4 mm 2 mps 747 mmHg 67%
    14:00 +6°C° 0.3 mm 2 mps 747 mmHg 66%
    15:00 +6°C° 0.3 mm 2 mps 747 mmHg 66%
    16:00 +6°C° 0.3 mm 2 mps 747 mmHg 66%
    17:00 +5°C° 0 mm 2 mps 748 mmHg 71%
    18:00 +3°C° 0 mm 3 mps 748 mmHg 76%
    19:00 +2°C° 0 mm 3 mps 749 mmHg 81%
    20:00 +2°C° 0 mm 3 mps 749 mmHg 85%
    21:00 0°C° 0 mm 4 mps 750 mmHg 88%
    22:00 0°C° 0 mm 4 mps 751 mmHg 91%
    23:00 0°C° 0 mm 4 mps 751 mmHg 90%

    Tomorrow, 26 March, Tuesday

    Time Temperature Precipitation Wind Pressure Humidity
    00:00 0°C° 0 mm 4 mps 752 mmHg 89%
    01:00 0°C° 0 mm 4 mps 752 mmHg 88%
    02:00 -1°C° 0 mm 4 mps 753 mmHg 88%
    03:00 -1°C° 0 mm 4 mps 753 mmHg 88%
    04:00 -2°C° 0 mm 4 mps 753 mmHg 88%
    05:00 -2°C° 0 mm 4 mps 753 mmHg 85%
    06:00 -1°C° 0 mm 4 mps 754 mmHg 82%
    07:00 -1°C° 0 mm 4 mps 754 mmHg 79%
    08:00 0°C° 0 mm 5 mps 753 mmHg 76%
    09:00 +2°C° 0 mm 7 mps 753 mmHg 72%
    10:00 +4°C° 0 mm 8 mps 753 mmHg 69%
    11:00 +4°C° 0.2 mm 8 mps 752 mmHg 67%
    12:00 +3°C° 0.2 mm 9 mps 752 mmHg 65%
    13:00 +5°C° 0.2 mm 9 mps 752 mmHg 63%
    14:00 +3°C° 0.1 mm 9 mps 752 mmHg 64%
    15:00 +2°C° 0.1 mm 9 mps 752 mmHg 65%
    16:00 +2°C° 0.1 mm 9 mps 752 mmHg 66%
    17:00 +1°C° 0.1 mm 8 mps 752 mmHg 68%
    18:00 0°C° 0.1 mm 7 mps 753 mmHg 69%
    19:00 -1°C° 0.1 mm 5 mps 754 mmHg 71%
    20:00 -1°C° 0 mm 5 mps 755 mmHg 70%
    21:00 -2°C° 0 mm 4 mps 755 mmHg 70%
    22:00 -2°C° 0 mm 3 mps 756 mmHg 69%
    23:00 -2°C° 0 mm 3 mps 756 mmHg 70%

    Day after tomorrow, 27 March, Wednesday

    Time Temperature Precipitation Wind Pressure Humidity
    00:00 -4°C° 0 mm 3 mps 757 mmHg 71%
    01:00 -4°C° 0 mm 3 mps 757 mmHg 72%
    02:00 -4°C° 0 mm 3 mps 758 mmHg 72%
    03:00 -3°C° 0 mm 2 mps 758 mmHg 71%
    04:00 -3°C° 0 mm 2 mps 758 mmHg 70%
    05:00 -2°C° 0 mm 2 mps 759 mmHg 66%
    06:00 -1°C° 0 mm 2 mps 759 mmHg 62%
    07:00 -1°C° 0 mm 2 mps 759 mmHg 58%
    08:00 +2°C° 0 mm 2 mps 759 mmHg 53%
    09:00 +3°C° 0 mm 2 mps 759 mmHg 47%
    10:00 +4°C° 0 mm 3 mps 760 mmHg 41%
    11:00 +5°C° 0 mm 3 mps 760 mmHg 43%
    12:00 +6°C° 0 mm 4 mps 760 mmHg 45%
    13:00 +8°C° 0 mm 4 mps 759 mmHg 47%
    14:00 +7°C° 0 mm 4 mps 759 mmHg 52%
    15:00 +7°C° 0 mm 4 mps 759 mmHg 57%
    16:00 +7°C° 0 mm 4 mps 759 mmHg 62%
    17:00 +7°C° 0 mm 3 mps 760 mmHg 69%
    18:00 +6°C° 0 mm 2 mps 760 mmHg 76%
    19:00 +6°C° 0 mm 1 mps 760 mmHg 83%
    20:00 +5°C° 0 mm 2 mps 760 mmHg 86%
    21:00 +4°C° 0 mm 2 mps 761 mmHg 88%
    22:00 +4°C° 0 mm 2 mps 761 mmHg 90%
    23:00 +4°C° 0 mm 2 mps 761 mmHg 91%

    28 March, Thursday

    Time Temperature Precipitation Wind Pressure Humidity
    00:00 +4°C° 0 mm 2 mps 761 mmHg 92%
    01:00 +4°C° 0 mm 2 mps 761 mmHg 92%
    02:00 +4°C° 0.1 mm 2 mps 761 mmHg 93%
    03:00 +4°C° 0.1 mm 2 mps 762 mmHg 95%
    04:00 +4°C° 0.1 mm 2 mps 762 mmHg 96%
    05:00 +6°C° 0 mm 1 mps 762 mmHg 95%
    06:00 +6°C° 0 mm 1 mps 762 mmHg 95%
    07:00 +6°C° 0 mm 1 mps 762 mmHg 94%
    08:00 +7°C° 0 mm 1 mps 763 mmHg 88%
    09:00 +9°C° 0 mm 1 mps 763 mmHg 81%
    10:00 +10°C° 0 mm 1 mps 763 mmHg 75%
    11:00 +11°C° 0 mm 1 mps 763 mmHg 70%
    12:00 +11°C° 0 mm 0 mps 764 mmHg 64%
    13:00 +12°C° 0 mm 0 mps 764 mmHg 59%
    14:00 +12°C° 0.1 mm 0 mps 764 mmHg 58%
    15:00 +11°C° 0.1 mm 0 mps 763 mmHg 58%
    16:00 +11°C° 0.1 mm 0 mps 763 mmHg 58%
    17:00 +10°C° 0 mm 0 mps 764 mmHg 63%
    18:00 +9°C° 0 mm 0 mps 764 mmHg 69%
    19:00 +8°C° 0 mm 0 mps 764 mmHg 74%
    20:00 +8°C° 0 mm 1 mps 764 mmHg 77%
    21:00 +8°C° 0 mm 1 mps 764 mmHg 80%
    22:00 +7°C° 0 mm 1 mps 765 mmHg 82%
    23:00 +7°C° 0 mm 1 mps 765 mmHg 84%

    29 March, Friday

    Time Temperature Precipitation Wind Pressure Humidity
    00:00 +6°C° 0 mm 1 mps 765 mmHg 86%
    01:00 +5°C° 0 mm 2 mps 765 mmHg 88%
    02:00 +5°C° 0 mm 2 mps 765 mmHg 89%
    03:00 +5°C° 0 mm 1 mps 765 mmHg 89%
    04:00 +5°C° 0 mm 1 mps 765 mmHg 90%
    05:00 +6°C° 0 mm 1 mps 765 mmHg 87%
    06:00 +6°C° 0 mm 1 mps 765 mmHg 85%
    07:00 +7°C° 0 mm 1 mps 765 mmHg 83%
    08:00 +8°C° 0 mm 2 mps 765 mmHg 76%
    09:00 +10°C° 0 mm 2 mps 765 mmHg 69%
    10:00 +12°C° 0 mm 2 mps 765 mmHg 61%
    11:00 +12°C° 0 mm 3 mps 764 mmHg 57%
    12:00 +13°C° 0 mm 3 mps 764 mmHg 53%
    13:00 +14°C° 0 mm 4 mps 763 mmHg 49%
    14:00 +14°C° 0 mm 4 mps 763 mmHg 50%
    15:00 +14°C° 0 mm 3 mps 762 mmHg 50%
    16:00 +14°C° 0 mm 3 mps 762 mmHg 51%
    17:00 +12°C° 0 mm 3 mps 762 mmHg 57%
    18:00 +12°C° 0 mm 2 mps 762 mmHg 63%
    19:00 +9°C° 0 mm 2 mps 762 mmHg 68%
    20:00 +8°C° 0 mm 2 mps 762 mmHg 72%
    21:00 +8°C° 0 mm 2 mps 762 mmHg 75%
    22:00 +7°C° 0 mm 2 mps 762 mmHg 78%
    23:00 +7°C° 0 mm 2 mps 761 mmHg 80%

    30 March, Saturday

    Time Temperature Precipitation Wind Pressure Humidity
    00:00 +7°C° 0 mm 1 mps 761 mmHg 82%
    01:00 +7°C° 0 mm 1 mps 761 mmHg 83%
    02:00 +5°C° 0 mm 2 mps 761 mmHg 85%
    03:00 +5°C° 0 mm 2 mps 761 mmHg 87%
    04:00 +5°C° 0 mm 2 mps 760 mmHg 88%
    05:00 +5°C° 0 mm 2 mps 760 mmHg 85%
    06:00 +5°C° 0 mm 3 mps 760 mmHg 82%
    07:00 +7°C° 0 mm 3 mps 760 mmHg 79%
    08:00 +7°C° 0 mm 4 mps 759 mmHg 72%
    09:00 +10°C° 0 mm 4 mps 759 mmHg 65%
    10:00 +12°C° 0 mm 5 mps 759 mmHg 57%
    11:00 +12°C° 0 mm 5 mps 758 mmHg 55%
    12:00 +13°C° 0 mm 5 mps 758 mmHg 53%
    13:00 +14°C° 0 mm 5 mps 757 mmHg 50%
    14:00 +14°C° 0 mm 5 mps 757 mmHg 52%
    15:00 +13°C° 0 mm 5 mps 756 mmHg 53%
    16:00 +13°C° 0 mm 5 mps 755 mmHg 55%
    17:00 +12°C° 0 mm 4 mps 755 mmHg 57%
    18:00 +11°C° 0 mm 3 mps 755 mmHg 60%
    19:00 +11°C° 0 mm 3 mps 755 mmHg 63%
    20:00 +10°C° 0 mm 3 mps 755 mmHg 65%
    21:00 +10°C° 0 mm 3 mps 754 mmHg 67%
    22:00 +9°C° 0 mm 3 mps 754 mmHg 69%
    23:00 +9°C° 0.1 mm 3 mps 753 mmHg 71%
    Show more